Flag for Western Sahara Weather past 2 weeks in Smara, Western Sahara

Now
88 °F

Sunny.


Feels Like: 90 °F
Forecast: 76 / 101 °F
Wind: 18 mph from Northeast

Location: Laayoune/Hassan Isl

Current Time: Aug 29, 2014 at 2:01:45 PM

Latest Report: Aug 29, 2014 at 1:00 PM


Visibility: 10 mi

Pressure: 29.98 "Hg

Humidity: 49%

Dew point: 66 °F

Location of SmaraLocation

Historic Weather in Smara — Graph

°F

Smara temperature yesterday

Maximum temperature yesterday: 86 °F (at 3:00 PM)
Minimum temperature yesterday: 72 °F (at 1:00 AM)
Average temperature yesterday: 77 °F

Past Weeks' High & Low Weather Summary

 TemperatureHumidityPressure
High100 °F (Aug 20, 4:00 PM)94% (Aug 27, 5:43 AM)30.04 "Hg (Aug 27, 5:43 AM)
Low68 °F (Aug 15, 5:00 AM)24% (Aug 21, 5:00 PM)29.83 "Hg (Aug 17, 5:00 PM)
Average77 °F69%29.94 "Hg
* Reported Aug 14 1:00 PM — Aug 29 1:00 PM, Smara, Weather by CustomWeather, © 2014

Note: Actual official high and low records may vary slightly from our data, if they occured in-between our weather recording intervals... More about our weather records

Advertising

Smara weather history for previous 24 hours

 ConditionsComfort  
Time TempWeatherWind HumidityBarometerVisibility
1:00 PM
Aug 29
88 °FSunny.18 mph49%29.98 "Hg10 mi
12:00 PM86 °FWarm.15 mph55%30.01 "HgN/A
11:00 AM81 °FWarm.14 mph66%30.01 "HgN/A
10:00 AM75 °FScattered clouds.14 mph78%29.98 "Hg5 mi
9:00 AM73 °FPassing clouds.14 mph83%29.98 "Hg4 mi
8:00 AM72 °FLow clouds.12 mph88%29.98 "Hg4 mi
7:00 AM72 °FLow clouds.14 mph88%29.98 "Hg5 mi
6:00 AM72 °FMostly cloudy.8 mph88%29.95 "Hg4 mi
5:37 AM72 °FPassing clouds.8 mph88%29.95 "Hg4 mi
5:00 AM72 °FPassing clouds.12 mph88%29.95 "Hg5 mi
4:17 AM72 °FPassing clouds.13 mph88%29.95 "Hg6 mi
4:00 AM72 °FPassing clouds.14 mph88%29.95 "Hg5 mi
3:00 AM73 °FPassing clouds.13 mph83%29.98 "Hg6 mi
2:10 AM73 °FPassing clouds.15 mph83%29.98 "Hg6 mi
2:00 AM73 °FPassing clouds.13 mph83%29.98 "Hg6 mi
1:00 AM73 °FMild.14 mph83%29.98 "Hg6 mi
12:00 AM73 °FMild.15 mph89%30.01 "HgN/A
11:00 PM
Aug 28
75 °FClear.15 mph78%29.98 "Hg10 mi
10:00 PM75 °FMild.13 mph78%29.98 "HgN/A
9:00 PM77 °FWarm.13 mph74%29.95 "HgN/A
8:00 PM79 °FWarm.10 mph70%29.95 "Hg6 mi
7:00 PM82 °FSunny.15 mph62%29.92 "Hg10 mi
6:00 PM84 °FSunny.16 mph55%29.92 "Hg10 mi
5:00 PM84 °FClear.16 mph58%29.92 "Hg5 mi
4:00 PM86 °FClear.16 mph52%29.92 "Hg4 mi
3:00 PM86 °FSunny.10 mph55%29.95 "Hg10 mi
2:00 PM84 °FClear.15 mph58%29.95 "Hg5 mi
Weather by CustomWeather, © 2014

See weather overviewHow to use our weather pages